Location: Beaurecueil
(43.5122°N, 5.5450°E)
Time: 14:06:30
(UTC+00:00)

Exosat Rocket - Pass Details

Date: 18 September 2020
Orbit: 760 x 2514 km, 72.3° (Epoch: 30 October)

Event Time Altitude Azimuth Distance (km) Brightness Sun altitude
Rises 18:57:06 0° 173° (S) 3,830 6.9 -14.3°
Reaches altitude 10° 19:00:13 10° 163° (SSE) 2,674 6.0 -14.8°
Maximum altitude 19:05:12 29° 105° (ESE) 1,463 4.4 -15.7°
Drops below altitude 10° 19:09:32 10° 45° (NE) 2,316 5.7 -16.4°
Sets 19:12:02 0° 34° (NE) 3,230 6.6 -16.9°
